UAL417 KLAX-PHOG

Flight info

Callsign UAL417
Flight time N/A
Altitude 38000
Route SUMMR2 DINTY DUETS R576 DADIE/N0478F400 R576 DENNS LNDHY1
Aircraft B772/H-SDE2E3FGHIJ5LORVWXY/LB1D1

Departure

Time 2026-04-24 16:26
Airport Los Angeles International Airport (KLAX)

Arrival

Time N/A
Airport Kahului International Airport (PHOG)
Time Latitude Longitude Altitude Speed Heading
2026-04-24 15:55 33.94103 -118.39889 100 ft 0 kts 307°
2026-04-24 16:13 33.94093 -118.39873 102 ft 4 kts 304°
2026-04-24 16:14 33.94061 -118.39828 100 ft 4 kts 346°
2026-04-24 16:14 33.94038 -118.39827 102 ft 4 kts 358°
2026-04-24 16:14 33.93993 -118.39833 102 ft 4 kts 31°
2026-04-24 16:15 33.93980 -118.39844 101 ft 4 kts 50°
2026-04-24 16:15 33.93969 -118.39911 104 ft 4 kts 90°
2026-04-24 16:16 33.93969 -118.39924 103 ft 0 kts 83°
2026-04-24 16:21 33.93972 -118.39897 102 ft 3 kts 83°
2026-04-24 16:21 33.93978 -118.39842 101 ft 7 kts 84°
2026-04-24 16:21 33.93953 -118.39800 102 ft 7 kts 165°
2026-04-24 16:22 33.93912 -118.39778 106 ft 6 kts 124°
2026-04-24 16:22 33.93930 -118.39495 107 ft 25 kts 82°
2026-04-24 16:22 33.93949 -118.39286 107 ft 25 kts 84°
2026-04-24 16:23 33.93968 -118.39075 109 ft 25 kts 83°
2026-04-24 16:23 33.93994 -118.38857 106 ft 27 kts 82°
2026-04-24 16:23 33.94016 -118.38634 107 ft 27 kts 82°
2026-04-24 16:24 33.94062 -118.38214 108 ft 21 kts 82°
2026-04-24 16:24 33.94076 -118.38062 107 ft 14 kts 90°
2026-04-24 16:24 33.94010 -118.38005 112 ft 14 kts 193°
2026-04-24 16:24 33.93974 -118.38143 114 ft 32 kts 264°
2026-04-24 16:25 33.93915 -118.38602 114 ft 87 kts 262°
2026-04-24 16:25 33.93824 -118.39620 113 ft 156 kts 264°
2026-04-24 16:25 33.93681 -118.41073 512 ft 185 kts 261°
2026-04-24 16:26 33.93252 -118.44429 2146 ft 217 kts 261°
2026-04-24 16:26 33.93019 -118.46301 2910 ft 231 kts 261°
2026-04-24 16:26 33.92621 -118.50189 4781 ft 238 kts 267°
2026-04-24 16:27 33.92539 -118.52282 5141 ft 261 kts 266°
2026-04-24 16:27 33.92417 -118.54495 5647 ft 267 kts 265°
2026-04-24 16:27 33.92260 -118.56743 6269 ft 272 kts 265°
2026-04-24 16:27 33.92083 -118.59024 6883 ft 274 kts 264°
2026-04-24 16:28 33.91894 -118.61317 7479 ft 276 kts 264°
2026-04-24 16:28 33.91682 -118.63617 8195 ft 279 kts 263°
2026-04-24 16:28 33.91235 -118.68313 9817 ft 285 kts 263°
2026-04-24 16:29 33.91011 -118.70663 10563 ft 291 kts 263°
2026-04-24 16:29 33.90772 -118.73171 10829 ft 314 kts 263°
2026-04-24 16:29 33.90238 -118.78798 11407 ft 359 kts 263°
2026-04-24 16:30 33.89661 -118.84873 13136 ft 367 kts 263°
2026-04-24 16:30 33.89370 -118.87928 14108 ft 368 kts 263°
2026-04-24 16:30 33.89076 -118.91002 14989 ft 371 kts 263°
2026-04-24 16:31 33.88780 -118.94084 15823 ft 373 kts 262°
2026-04-24 16:31 33.88481 -118.97199 16654 ft 375 kts 262°
2026-04-24 16:31 33.88181 -119.00318 17453 ft 377 kts 262°
2026-04-24 16:31 33.87877 -119.03465 18198 ft 379 kts 262°
2026-04-24 16:32 33.87672 -119.05597 18642 ft 380 kts 262°
2026-04-24 16:32 33.87261 -119.09813 19496 ft 386 kts 262°
2026-04-24 16:32 33.86948 -119.13033 20210 ft 387 kts 262°
2026-04-24 16:32 33.86633 -119.16262 20873 ft 389 kts 262°
2026-04-24 16:33 33.86314 -119.19512 21470 ft 392 kts 262°
2026-04-24 16:33 33.85991 -119.22787 22070 ft 395 kts 262°
2026-04-24 16:33 33.85667 -119.26080 22676 ft 397 kts 262°
2026-04-24 16:33 33.85340 -119.29385 23264 ft 399 kts 262°
2026-04-24 16:34 33.85011 -119.32702 23887 ft 400 kts 262°
2026-04-24 16:34 33.84680 -119.36032 24438 ft 402 kts 262°
2026-04-24 16:34 33.84347 -119.39384 24955 ft 405 kts 262°
2026-04-24 16:34 33.84015 -119.42710 25456 ft 407 kts 262°
2026-04-24 16:35 33.83676 -119.46103 25926 ft 409 kts 262°
2026-04-24 16:35 33.83329 -119.49559 26369 ft 412 kts 261°
2026-04-24 16:35 33.82990 -119.52934 26823 ft 413 kts 261°
2026-04-24 16:35 33.82642 -119.56373 27259 ft 414 kts 262°
2026-04-24 16:36 33.82293 -119.59823 27656 ft 417 kts 261°
2026-04-24 16:36 33.81939 -119.63302 28026 ft 418 kts 261°
2026-04-24 16:36 33.81585 -119.66784 28380 ft 420 kts 261°
2026-04-24 16:36 33.81229 -119.70265 28741 ft 421 kts 261°
2026-04-24 16:37 33.80871 -119.73770 29064 ft 422 kts 261°
2026-04-24 16:37 33.80510 -119.77274 29334 ft 424 kts 261°
2026-04-24 16:37 33.80269 -119.79617 29510 ft 425 kts 261°
2026-04-24 16:37 33.79785 -119.84306 29831 ft 427 kts 261°
2026-04-24 16:38 33.79419 -119.87849 30087 ft 428 kts 261°
2026-04-24 16:38 33.79050 -119.91400 30311 ft 429 kts 261°
2026-04-24 16:38 33.78680 -119.94960 30610 ft 429 kts 261°
2026-04-24 16:38 33.78309 -119.98506 30965 ft 427 kts 261°
2026-04-24 16:39 33.77936 -120.02049 31281 ft 425 kts 261°
2026-04-24 16:39 33.77566 -120.05582 31573 ft 425 kts 261°
2026-04-24 16:39 33.77195 -120.09104 31814 ft 425 kts 261°
2026-04-24 16:39 33.76823 -120.12625 32081 ft 424 kts 261°
2026-04-24 16:40 33.76450 -120.16150 32377 ft 423 kts 262°
2026-04-24 16:40 33.76077 -120.19659 32628 ft 423 kts 262°
2026-04-24 16:40 33.75709 -120.23116 32911 ft 422 kts 262°
2026-04-24 16:40 33.75331 -120.26654 33211 ft 421 kts 262°
2026-04-24 16:41 33.74962 -120.30091 33492 ft 420 kts 262°
2026-04-24 16:41 33.74587 -120.33579 33736 ft 420 kts 262°
2026-04-24 16:41 33.74212 -120.37054 34017 ft 418 kts 262°
2026-04-24 16:41 33.73838 -120.40522 34297 ft 417 kts 262°
2026-04-24 16:42 33.73465 -120.43974 34613 ft 415 kts 262°
2026-04-24 16:42 33.73092 -120.47404 34864 ft 414 kts 262°
2026-04-24 16:42 33.72719 -120.50837 35133 ft 413 kts 262°
2026-04-24 16:42 33.72347 -120.54243 35427 ft 411 kts 262°
2026-04-24 16:43 33.71975 -120.57650 35669 ft 410 kts 262°
2026-04-24 16:43 33.71602 -120.61052 35884 ft 410 kts 262°
2026-04-24 16:43 33.71229 -120.64440 36167 ft 408 kts 262°
2026-04-24 16:43 33.70858 -120.67811 36387 ft 407 kts 262°
2026-04-24 16:44 33.70484 -120.71187 36574 ft 407 kts 262°
2026-04-24 16:44 33.70111 -120.74556 36785 ft 406 kts 262°
2026-04-24 16:44 33.69744 -120.77862 37138 ft 401 kts 262°
2026-04-24 16:44 33.69373 -120.81166 37499 ft 396 kts 262°
2026-04-24 16:45 33.69009 -120.84429 37808 ft 392 kts 262°
2026-04-24 16:45 33.68646 -120.87678 37924 ft 393 kts 261°
2026-04-24 16:45 33.67911 -120.94216 38031 ft 395 kts 261°
2026-04-24 16:46 33.67173 -121.00759 38023 ft 394 kts 261°
2026-04-24 16:46 33.66441 -121.07214 38030 ft 393 kts 261°
2026-04-24 16:47 33.65702 -121.13706 38027 ft 392 kts 261°
2026-04-24 16:47 33.64959 -121.20192 38031 ft 392 kts 261°
2026-04-24 16:48 33.64211 -121.26691 38026 ft 393 kts 261°
2026-04-24 16:48 33.63461 -121.33184 38028 ft 393 kts 261°
2026-04-24 16:49 33.62704 -121.39701 38028 ft 394 kts 261°
2026-04-24 16:49 33.61944 -121.46213 38029 ft 395 kts 261°
2026-04-24 16:50 33.61178 -121.52747 38029 ft 395 kts 261°
2026-04-24 16:50 33.60411 -121.59266 38027 ft 395 kts 261°
2026-04-24 16:51 33.59643 -121.65737 38026 ft 394 kts 261°
2026-04-24 16:51 33.58871 -121.72256 38029 ft 395 kts 261°
2026-04-24 16:52 33.58091 -121.78774 38028 ft 394 kts 261°
2026-04-24 16:52 33.57443 -121.84179 38036 ft 394 kts 261°
2026-04-24 16:53 33.56662 -121.90687 38033 ft 394 kts 261°
2026-04-24 16:53 33.55748 -121.98237 38023 ft 394 kts 261°
2026-04-24 16:54 33.55087 -122.03673 38031 ft 394 kts 261°
2026-04-24 16:54 33.54292 -122.10184 38028 ft 394 kts 261°
2026-04-24 16:55 33.53500 -122.16662 38027 ft 395 kts 261°
2026-04-24 16:55 33.52702 -122.23138 38028 ft 395 kts 261°
2026-04-24 16:56 33.51890 -122.29691 38027 ft 394 kts 261°
2026-04-24 16:56 33.51088 -122.36155 38026 ft 394 kts 261°
2026-04-24 16:57 33.50273 -122.42686 38023 ft 394 kts 261°
2026-04-24 16:57 33.49465 -122.49146 38025 ft 394 kts 261°
2026-04-24 16:58 33.48646 -122.55654 38027 ft 394 kts 261°
2026-04-24 16:58 33.47574 -122.62080 38028 ft 394 kts 256°
2026-04-24 16:59 33.46251 -122.68458 38032 ft 395 kts 256°
2026-04-24 17:00 33.44260 -122.78036 38029 ft 395 kts 256°
2026-04-24 17:00 33.42276 -122.87602 38025 ft 395 kts 256°
2026-04-24 17:01 33.40290 -122.97152 38027 ft 395 kts 256°
2026-04-24 17:02 33.38296 -123.06714 38026 ft 395 kts 256°
2026-04-24 17:02 33.36956 -123.13109 38026 ft 395 kts 256°
2026-04-24 17:03 33.34947 -123.22664 38027 ft 394 kts 256°
2026-04-24 17:04 33.33613 -123.28995 38027 ft 394 kts 256°
2026-04-24 17:04 33.31588 -123.38563 38028 ft 395 kts 256°
2026-04-24 17:05 33.30238 -123.44917 38027 ft 395 kts 256°
2026-04-24 17:06 33.28206 -123.54458 38031 ft 396 kts 256°
2026-04-24 17:06 33.26160 -123.64032 38036 ft 396 kts 255°
2026-04-24 17:07 33.24798 -123.70371 38036 ft 396 kts 255°
2026-04-24 17:08 33.22049 -123.83127 38047 ft 396 kts 255°
2026-04-24 17:08 33.20679 -123.89461 38047 ft 396 kts 255°
2026-04-24 17:09 33.17912 -124.02196 38046 ft 395 kts 255°
2026-04-24 17:10 33.15142 -124.14879 38047 ft 396 kts 255°
2026-04-24 17:12 33.09553 -124.40277 38046 ft 396 kts 255°